Weather reports worldwide

Advertisment
London/Heathrow Intl, United Kingdom (3772): temperature & dewpoint: 15.08.2017 11:00:00 - 21.08.2017 11:00:00 (BST)London/Heathrow Intl, United Kingdom (3772): wind speed & gusts: 15.08.2017 11:00:00 - 21.08.2017 11:00:00 (BST)London/Heathrow Intl, United Kingdom (3772): wind direction: 15.08.2017 11:00:00 - 21.08.2017 11:00:00 (BST)London/Heathrow Intl, United Kingdom (3772): reduced air pressure: 15.08.2017 11:00:00 - 21.08.2017 11:00:00 (BST)London/Heathrow Intl, United Kingdom (3772): visibility: 15.08.2017 11:00:00 - 21.08.2017 11:00:00 (BST)London/Heathrow Intl, United Kingdom (3772): sunshine duration: 15.08.2017 11:00:00 - 21.08.2017 11:00:00 (BST)London/Heathrow Intl, United Kingdom (3772): precipitation: 15.08.2017 11:00:00 - 21.08.2017 11:00:00 (BST)
Date & Time tt [°C] td [°C] ff [km/h] ff [kn] fx [km/h] fx [kn] dd ppp [hPa] vv [km] sd [min] rr [mm]
21.08.2017 11:00:00 16,3 15,6 8 4 - - E 1021,8 10 0 0,0
21.08.2017 10:00:00 15,8 15,5 9 5 - - E 1021,6 9 0 0,0
21.08.2017 09:00:00 15,2 15,0 8 4 - - E 1021,5 5 0 0,0
21.08.2017 08:00:00 14,7 14,6 9 5 - - E 1021,3 2,3 0 0,2
21.08.2017 07:00:00 14,3 14,1 11 6 - - E 1020,9 2,0 0 0,4
21.08.2017 06:00:00 14,1 13,9 11 6 - - E 1020,6 1,8 0 0,4
21.08.2017 05:00:00 14,0 13,8 13 7 - - E 1020,6 2,3 0 0,4
21.08.2017 04:00:00 14,0 13,7 15 8 - - E 1020,9 2,2 0 0,8
21.08.2017 03:00:00 14,0 13,7 13 7 - - ESE 1021,4 4,1 0 0,2
21.08.2017 02:00:00 13,9 13,7 13 7 - - ESE 1021,8 4,8 0 1,0
21.08.2017 01:00:00 13,7 13,5 11 6 - - ESE 1022,5 3,7 - 0,6
21.08.2017 00:00:00 13,7 13,3 9 5 - - SE 1023,0 3,8 0 0,6
20.08.2017 23:00:00 13,6 13,1 9 5 - - SE 1023,2 7 0 0,4
20.08.2017 22:00:00 13,8 13,1 11 6 - - S 1023,9 7 0 0,8
20.08.2017 21:00:00 14,1 12,4 9 5 - - SW 1023,8 10 0 0,4
20.08.2017 20:00:00 14,8 12,5 15 8 - - WSW 1023,8 10 0 0,2
20.08.2017 19:00:00 16,0 13,3 18 10 - - SW 1023,2 10 0 0,4
20.08.2017 18:00:00 18,5 11,1 18 10 - - WSW 1023,1 10 0 0,0
20.08.2017 17:00:00 19,4 10,8 16 9 - - SSW 1023,0 10 0 0,0
20.08.2017 16:00:00 19,9 8,6 18 10 - - SW 1023,3 10 18 0,0
20.08.2017 15:00:00 20,1 8,5 21 11 - - WSW 1023,6 10 42 0,0
20.08.2017 14:00:00 19,7 8,7 18 10 - - SW 1024,2 10 36 0,0
20.08.2017 13:00:00 19,4 9,0 18 10 - - W 1023,9 10 18 0,0
20.08.2017 12:00:00 18,6 8,5 16 9 - - W 1024,2 10 30 0,0
20.08.2017 11:00:00 18,0 7,4 18 10 - - W 1024,2 10 60 0,0
20.08.2017 10:00:00 15,9 10,4 13 7 - - W 1024,1 10 54 0,0
20.08.2017 09:00:00 14,5 10,6 11 6 - - W 1023,9 10 60 0,0
20.08.2017 08:00:00 12,7 10,5 9 5 - - WSW 1023,5 10 60 0,0
20.08.2017 07:00:00 11,3 9,8 11 6 - - WSW 1023,2 10 0 0,0
20.08.2017 06:00:00 10,6 8,9 8 4 - - W 1022,6 10 0 0,0
20.08.2017 05:00:00 10,6 8,8 8 4 - - W 1022,3 10 0 0,0
20.08.2017 04:00:00 10,2 8,2 13 7 - - W 1022,2 10 0 0,0
20.08.2017 03:00:00 11,0 8,9 15 8 - - W 1022,0 10 0 0,0
20.08.2017 02:00:00 11,6 9,3 15 8 - - WSW 1021,8 10 0 0,0
20.08.2017 01:00:00 12,3 9,2 13 7 - - W 1021,7 10 - 0,0
20.08.2017 00:00:00 12,7 9,0 13 7 - - W 1021,5 10 0 0,0
19.08.2017 23:00:00 13,7 9,0 16 9 - - WSW 1021,1 10 0 0,0
19.08.2017 22:00:00 14,1 8,7 18 10 - - W 1021,0 10 0 0,0
19.08.2017 21:00:00 15,3 7,7 16 9 - - W 1020,6 10 0 0,0
19.08.2017 20:00:00 16,7 7,7 22 12 - - W 1019,4 10 36 0,0
19.08.2017 19:00:00 18,7 7,3 29 16 - - W 1019,1 10 60 0,0
19.08.2017 18:00:00 19,1 7,4 35 19 55 30 W 1018,9 10 30 0,0
19.08.2017 17:00:00 19,6 6,7 31 17 52 28 W 1018,4 10 48 0,0
19.08.2017 16:00:00 19,5 7,5 31 17 50 27 W 1018,0 10 36 0,0
19.08.2017 15:00:00 20,2 9,7 24 13 54 29 W 1017,9 10 18 0,0
19.08.2017 14:00:00 18,7 8,2 29 16 46 25 W 1017,7 10 24 0,0
19.08.2017 13:00:00 19,6 9,7 28 15 - - W 1017,4 10 54 0,0
19.08.2017 12:00:00 17,7 9,1 28 15 - - W 1017,4 10 18 0,0
19.08.2017 11:00:00 17,7 10,8 28 15 - - W 1017,3 10 42 0,0
19.08.2017 10:00:00 16,9 10,9 22 12 - - W 1017,2 10 54 0,0
19.08.2017 09:00:00 15,8 11,5 22 12 - - W 1017,0 10 48 0,0
19.08.2017 08:00:00 14,2 11,5 18 10 - - W 1016,3 10 60 0,0
19.08.2017 07:00:00 13,0 11,3 18 10 - - W 1015,6 10 12 0,0
19.08.2017 06:00:00 12,9 11,4 16 9 - - W 1015,0 10 0 0,0
19.08.2017 05:00:00 13,1 11,7 15 8 - - WSW 1014,2 10 0 0,0
19.08.2017 04:00:00 13,1 11,5 21 11 - - W 1013,6 10 0 0,0
19.08.2017 03:00:00 13,7 11,7 16 9 - - W 1013,2 10 0 0,0
19.08.2017 02:00:00 13,6 11,3 26 14 48 26 WSW 1012,6 10 0 0,0
19.08.2017 01:00:00 14,5 10,9 29 16 46 25 WSW 1012,4 10 - 0,0
19.08.2017 00:00:00 14,3 9,9 28 15 - - WSW 1011,8 10 0 0,0
18.08.2017 23:00:00 14,5 9,5 28 15 - - SW 1011,6 10 0 0,0
18.08.2017 22:00:00 15,0 8,9 21 11 - - SW 1011,9 10 0 0,0
18.08.2017 21:00:00 15,3 10,3 16 9 - - SW 1012,1 10 0 0,0
18.08.2017 20:00:00 15,3 10,0 22 12 - - SW 1012,2 10 0 0,0
18.08.2017 19:00:00 15,7 10,8 22 12 - - WSW 1012,0 10 30 0,0
18.08.2017 18:00:00 16,4 10,0 28 15 - - WSW 1011,6 10 60 0,0
18.08.2017 17:00:00 14,7 10,9 26 14 55 30 WSW 1011,4 10 6 0,8
18.08.2017 16:00:00 14,0 10,7 28 15 50 27 SW 1011,8 10 0 2,6
18.08.2017 15:00:00 15,6 11,5 22 12 - - W 1011,3 10 12 0,2
18.08.2017 14:00:00 15,2 12,5 15 8 - - WNW 1010,9 10 18 3,4
18.08.2017 13:00:00 19,2 10,0 28 15 - - WSW 1010,6 10 30 0,0
18.08.2017 12:00:00 18,6 9,5 21 11 - - W 1010,8 10 48 0,0
18.08.2017 11:00:00 19,2 11,8 28 15 - - WSW 1011,3 10 54 0,0
18.08.2017 10:00:00 18,0 11,7 28 15 - - WSW 1011,1 10 60 0,0
18.08.2017 09:00:00 17,0 13,7 24 13 - - WSW 1010,7 10 60 0,0
18.08.2017 08:00:00 15,7 13,9 22 12 - - SW 1010,1 10 54 0,0
18.08.2017 07:00:00 15,0 13,2 21 11 - - WSW 1010,1 10 0 0,0
18.08.2017 06:00:00 15,5 14,4 18 10 - - WSW 1009,7 10 0 3,6
18.08.2017 05:00:00 15,9 14,7 11 6 - - SSW 1009,8 6 0 0,2
18.08.2017 04:00:00 15,9 14,0 15 8 - - SSW 1010,1 10 0 0,0
18.08.2017 03:00:00 15,5 13,7 13 7 - - SSW 1011,1 10 0 0,0
18.08.2017 02:00:00 15,8 13,5 15 8 - - SW 1011,0 10 0 0,0
18.08.2017 01:00:00 16,2 13,9 13 7 - - SW 1011,6 10 - 0,0
18.08.2017 00:00:00 16,5 14,0 15 8 - - SW 1011,8 10 0 0,0
17.08.2017 23:00:00 17,0 14,3 18 10 - - SW 1011,9 10 0 0,0
17.08.2017 22:00:00 17,7 14,3 22 12 - - SW 1011,7 10 0 0,0
17.08.2017 21:00:00 18,6 14,9 21 11 - - SSW 1011,7 10 0 0,0
17.08.2017 20:00:00 20,0 14,4 24 13 - - SW 1011,7 10 12 0,0
17.08.2017 19:00:00 21,2 14,4 26 14 - - SW 1011,5 10 24 0,0
17.08.2017 18:00:00 22,6 12,7 26 14 - - WSW 1011,4 10 42 0,0
17.08.2017 17:00:00 23,8 11,6 31 17 - - W 1011,4 10 18 0,0
17.08.2017 16:00:00 23,0 14,8 28 15 - - SW 1011,1 10 24 0,0
17.08.2017 15:00:00 23,4 14,9 26 14 - - WSW 1010,8 10 24 0,0
17.08.2017 14:00:00 23,0 13,7 26 14 - - W 1010,9 10 48 0,0
17.08.2017 13:00:00 24,1 14,7 29 16 48 26 WSW 1010,8 10 54 0,0
17.08.2017 12:00:00 23,0 17,4 24 13 - - SW 1010,8 10 30 0,0
17.08.2017 11:00:00 20,5 17,4 22 12 - - SW 1010,7 10 0 0,0
17.08.2017 10:00:00 19,7 17,8 21 11 - - SW 1010,5 10 6 0,0
17.08.2017 09:00:00 18,3 17,3 16 9 - - SW 1010,5 10 0 0,0
17.08.2017 08:00:00 17,9 16,9 16 9 - - SSW 1010,3 10 0 0,0
17.08.2017 07:00:00 17,6 16,8 15 8 - - SSW 1010,2 10 0 0,0
17.08.2017 06:00:00 17,0 16,5 15 8 - - SSW 1010,5 10 0 0,2
17.08.2017 05:00:00 16,6 15,9 15 8 - - S 1010,8 10 0 0,2
17.08.2017 04:00:00 16,5 15,4 15 8 - - S 1011,3 10 0 0,2
17.08.2017 03:00:00 16,4 14,9 16 9 - - S 1012,2 10 0 0,0
17.08.2017 02:00:00 15,9 14,5 15 8 - - S 1013,1 10 0 2,0
17.08.2017 01:00:00 15,5 13,5 11 6 - - S 1014,0 8 - 1,2
17.08.2017 00:00:00 16,7 12,6 13 7 - - SSE 1014,7 10 0 0,0
16.08.2017 23:00:00 16,7 12,2 13 7 - - S 1015,6 10 0 0,0
16.08.2017 22:00:00 16,8 12,4 18 10 - - S 1016,4 10 0 0,0
16.08.2017 21:00:00 17,7 11,1 18 10 - - SSW 1017,2 10 0 0,0
16.08.2017 20:00:00 19,1 11,5 18 10 - - S 1016,8 10 0 0,0
16.08.2017 19:00:00 20,2 11,8 22 12 - - SSW 1017,3 10 36 0,0
16.08.2017 18:00:00 21,2 10,3 24 13 - - SSW 1017,4 10 60 0,0
16.08.2017 17:00:00 22,2 10,9 21 11 - - SSW 1017,6 10 36 0,0
16.08.2017 16:00:00 22,6 10,2 21 11 - - SW 1018,2 10 60 0,0
16.08.2017 15:00:00 22,0 10,4 22 12 - - SW 1018,8 10 30 0,0
16.08.2017 14:00:00 20,4 10,9 21 11 - - S 1019,2 10 18 0,0
16.08.2017 13:00:00 21,5 12,5 21 11 - - SSW 1019,2 10 24 0,0
16.08.2017 12:00:00 19,3 11,4 18 10 - - SW 1020,1 10 6 0,0
16.08.2017 11:00:00 18,0 13,5 18 10 - - SW 1020,6 10 0 0,0
16.08.2017 10:00:00 16,8 11,8 11 6 - - SSW 1020,7 10 0 0,0
16.08.2017 09:00:00 15,7 11,8 4 2 - - - 1020,5 10 12 0,0
16.08.2017 08:00:00 14,0 10,9 4 2 - - - 1020,4 10 0 0,0
16.08.2017 07:00:00 12,9 10,2 2 1 - - - 1020,3 10 0 0,0
16.08.2017 06:00:00 11,9 9,7 5 3 - - W 1020,1 10 0 0,0
16.08.2017 05:00:00 11,7 9,6 8 4 - - SSW 1019,8 10 0 0,0
16.08.2017 04:00:00 12,2 9,1 2 1 - - W 1019,8 10 0 0,0
16.08.2017 03:00:00 12,4 8,6 2 1 - - W 1020,0 10 0 0,0
16.08.2017 02:00:00 12,5 8,3 2 1 - - WNW 1020,0 10 0 0,0
16.08.2017 01:00:00 14,3 8,8 5 3 - - WNW 1019,9 10 - 0,0
16.08.2017 00:00:00 15,2 8,2 15 8 - - W 1019,6 10 0 0,0
15.08.2017 23:00:00 16,2 9,0 13 7 - - W 1019,3 10 0 0,0
15.08.2017 22:00:00 17,4 8,5 11 6 - - W 1019,0 10 0 0,0
15.08.2017 21:00:00 19,0 9,1 16 9 - - W 1018,2 10 0 0,0
15.08.2017 20:00:00 20,2 8,5 15 8 - - W 1017,1 10 54 0,0
15.08.2017 19:00:00 22,0 8,7 21 11 - - W 1016,3 10 54 0,0
15.08.2017 18:00:00 22,9 10,0 16 9 - - W 1016,0 10 36 0,0
15.08.2017 17:00:00 23,3 10,5 22 12 - - W 1016,0 10 54 0,0
15.08.2017 16:00:00 23,8 10,8 21 11 - - WSW 1015,6 10 42 0,0
15.08.2017 15:00:00 23,2 10,8 18 10 - - WSW 1015,5 10 42 0,0
15.08.2017 14:00:00 21,7 12,0 15 8 - - W 1015,4 10 42 0,0
15.08.2017 13:00:00 22,5 13,1 21 11 - - W 1015,0 10 48 0,0
15.08.2017 12:00:00 19,8 12,9 15 8 - - W 1014,8 10 24 0,0
15.08.2017 11:00:00 19,1 12,7 13 7 - - WNW 1014,8 10 0 0,0

tt = temperature
td = dewpoint
ff = wind speed
fx = gusts
dd = wind direction
ppp = reduced air pressure
vv = visibility
sd = sunshine duration
rr = precipitation

Next stations